Content
SEND FEEDBACK

Daily
Averages
Monthly
Summary
United Kingdom

LONDON, ENGLAND


Home > Europe > United Kingdom > England
Elevation: 203 feet     Latitude: 51 09N     Longitude: 000 11W

WEATHER
 
SELECT A DAY
Number of Records: 299,526;   Date Range: 7/1/96 - 12/20/14
 
SHARE

PRINT THIS DATA

[ ← Previous Day ]
WEATHER ALMANAC - MARCH 16, 2013
[ Next Day → ]
[ °C ]   °F
Weather ElementAverageHighLow
Temperature43.1 °F44.6 °F (12:50 am)41 °F (11:50 pm)
Dewpoint39 °F41 °F (1:20 pm)35.6 °F (11:50 pm)
Humidity85.3 %93 % (1:20 pm)81 % (12:50 am)
Barometer29.42 in29.59 in (12:50 am)29.33 in (7:20 pm)
Wind Speed14.6 mph19.6 mph (4:20 am)
Wind Gust35.7 mph (4:20 am)
Weather ElementAverage
Visibility5.7 mi
Wind DirectionSSW (186.8 °)

Weather ElementTotal
Precipitation---
Heating Degree Days22.2 (Base 65)
Averaged from 47 records on March 16, 2013
WEATHER CONDITIONS BREAKOUT
WIND DIRECTION BREAKOUT
WEATHER BY HOUR - MARCH 16, 2013
[ °C ]   °F
Local TimeTemperatureDewpointHumidityBarometerVisibilityWind DirectionWind SpeedGust SpeedPrecipitationEventsConditions
12:50 AM44.6 °F39.2 °F81 %29.59 in6.2 miSSW (200°)15.0 mphRainLight Rain
1:20 AM44.6 °F39.2 °F81 %29.56 in6.2 miSouth (190°)16.1 mphRainLight Rain
1:50 AM44.6 °F39.2 °F81 %29.56 in6.2 miSSW (200°)17.3 mphRainLight Rain
2:20 AM44.6 °F39.2 °F81 %29.56 in6.2 miSouth (190°)18.4 mph32.2 mphMostly Cloudy
2:50 AM44.6 °F39.2 °F81 %29.53 in6.2 miSSW (200°)17.3 mph28.8 mphMostly Cloudy
3:20 AM44.6 °F39.2 °F81 %29.53 in5.6 miSouth (190°)18.4 mph29.9 mphRainLight Rain
3:50 AM44.6 °F39.2 °F81 %29.53 in6.2 miSouth (190°)17.3 mphMostly Cloudy
4:20 AM44.6 °F39.2 °F81 %29.50 in6.2 miSouth (190°)19.6 mph35.7 mphRainLight Rain
4:50 AM42.8 °F39.2 °F87 %29.50 in6.2 miSSW (200°)16.1 mph27.6 mphRainLight Rain
5:20 AM42.8 °F39.2 °F87 %29.50 in6.2 miSouth (190°)17.3 mphRainLight Rain
5:50 AM42.8 °F39.2 °F87 %29.47 in5.0 miSouth (190°)16.1 mph27.6 mphRainLight Rain
6:20 AM42.8 °F39.2 °F87 %29.47 in4.3 miSouth (190°)15.0 mphRainRain
6:50 AM42.8 °F39.2 °F87 %29.47 in4.3 miSouth (190°)16.1 mphRainRain
7:20 AM42.8 °F39.2 °F87 %29.47 in4.3 miSouth (180°)15.0 mphRainRain
7:50 AM42.8 °F39.2 °F87 %29.44 in6.2 miSouth (180°)16.1 mphRainLight Rain
8:20 AM42.8 °F39.2 °F87 %29.44 in6.2 miSouth (180°)16.1 mph27.6 mphRainLight Rain
8:50 AM42.8 °F39.2 °F87 %29.44 in6.2 miSouth (180°)17.3 mph28.8 mphRainLight Rain
9:20 AM42.8 °F39.2 °F87 %29.42 in4.3 miSouth (170°)15.0 mphRainLight Rain
9:50 AM42.8 °F39.2 °F87 %29.42 in3.7 miSouth (180°)16.1 mph28.8 mphRainLight Rain
10:20 AM42.8 °F39.2 °F87 %29.42 in6.2 miSouth (180°)17.3 mphRainLight Rain
10:50 AM42.8 °F39.2 °F87 %29.42 in4.3 miSouth (180°)17.3 mphRainLight Rain
11:20 AM42.8 °F39.2 °F87 %29.42 in3.7 miSSW (200°)18.4 mph29.9 mphRainLight Rain
11:50 AM42.8 °F39.2 °F87 %29.42 in3.7 miSouth (190°)17.3 mph32.2 mphRainLight Rain
12:20 PM42.8 °F39.2 °F87 %29.42 in5.0 miSSW (200°)16.1 mph27.6 mphRainLight Rain
12:50 PM42.8 °F39.2 °F87 %29.42 in3.1 miSSW (200°)15.0 mphRainRain
1:20 PM42.8 °F41.0 °F93 %29.39 in6.2 miSSW (200°)13.8 mphRainLight Rain
1:50 PM42.8 °F41.0 °F93 %29.39 in5.6 miSSW (200°)12.7 mphRainLight Rain
2:20 PM44.6 °F41.0 °F87 %29.39 in6.2 miSouth (190°)15.0 mphMostly Cloudy
2:50 PM44.6 °F39.2 °F81 %29.39 in6.2 miSouth (190°)13.8 mphMostly Cloudy
3:20 PM42.8 °F39.2 °F87 %29.39 in6.2 miSouth (190°)12.7 mphMostly Cloudy
3:50 PM42.8 °F39.2 °F87 %29.39 in6.2 miSouth (190°)12.7 mphMostly Cloudy
4:20 PM42.8 °F39.2 °F87 %29.36 in6.2 miSouth (180°)11.5 mphMostly Cloudy
4:50 PM42.8 °F37.4 °F81 %29.36 in6.2 miSouth (170°)11.5 mphMostly Cloudy
5:20 PM42.8 °F37.4 °F81 %29.36 in6.2 miSouth (170°)10.4 mphMostly Cloudy
5:50 PM42.8 °F37.4 °F81 %29.36 in6.2 miSSE (160°)11.5 mphRainLight Rain
6:20 PM42.8 °F37.4 °F81 %29.36 in5.6 miSSE (160°)11.5 mphRainLight Rain Showers
6:50 PM42.8 °F39.2 °F87 %29.36 in6.2 miSSE (160°)11.5 mphMostly Cloudy
7:20 PM42.8 °F39.2 °F87 %29.33 in6.2 miSSE (150°)10.4 mphRainLight Rain Showers
7:50 PM42.8 °F39.2 °F87 %29.33 in6.2 miSouth (170°)11.5 mphMostly Cloudy
8:20 PM42.8 °F39.2 °F87 %29.33 in6.2 miSouth (170°)13.8 mphScattered Clouds
8:50 PM42.8 °F39.2 °F87 %29.33 in5.6 miSouth (170°)15.0 mphRainLight Rain Showers
9:20 PM42.8 °F39.2 °F87 %29.33 in6.2 miSouth (190°)12.7 mphRainLight Rain Showers
9:50 PM42.8 °F39.2 °F87 %29.33 in6.2 miSSW (200°)11.5 mphMostly Cloudy
10:20 PM42.8 °F39.2 °F87 %29.33 in6.2 miSSW (200°)12.7 mphMostly Cloudy
10:50 PM42.8 °F39.2 °F87 %29.33 in6.2 miSSW (210°)12.7 mphScattered Clouds
11:20 PM42.8 °F37.4 °F81 %29.33 in6.2 miSSW (210°)11.5 mphPartly Cloudy
11:50 PM41.0 °F35.6 °F81 %29.33 inSW (220°)9.2 mphClear
Hourly data recorded from EGKK, located miles away from London, England







STORIES FROM OUR PARTNERS